www.pogodaiklimat.ru

Погода и климат >> Архив погоды >> Россия >> Ненецкий АО >> Усть-Кара


ПОГОДА в Усть-Каре

  • Прогноз погоды в Усть-Каре
  • Монитор погоды в Усть-Каре

АРХИВ ПОГОДЫ в Усть-Каре

Время (UTC), дата Ветер
(напр.,м/с)
 
Видим.   Явления Облачность Т
(С)
Тd
(С)
f
(%)
Тe
(С)
Тes
(С)
Комфортность P
(гПа)
Po
(гПа)
Тmin
(С)
Tmax
(С)
R
(мм)
R24
(мм)
S
(см)
12 18.06 ЮВ 3 4000 м слаб. ливневой дождь 8/6 300 м
[Cb cap Ci fib]
+4.5 +2.1 84 +1 +3 994.8 994.4
15 18.06 С 1 4000 м слаб. ливневой дождь 10/6 300 м
[Cb cap Ac trans Ci fib]
+2.4 +1.1 91 +1 +1 995.2 994.8 +4.5 1
18 18.06 З 4 4000 м слаб. ливневой дождь 10/8 300 м
[Cb cap Ac trans]
+0.9 +0.8 99 -5 -5 995.4 995.0
21 18.06 СЗ 3 4000 м слаб. ливневой снег 10/10 300 м
[Cb cap]
0.0 0.0 100 -5 -5 995.7 995.3
00 19.06 СЗ 7 2000 м слаб. ливневой снег 10/10 300 м
[Cb cap]
-0.2 -0.2 100 -8 -8 997.1 996.7
03 19.06 СЗ 7 10 км в посл. час ливневой снег 10/10 300 м
[Cb cap]
-0.1 -0.1 100 -8 -8 998.2 997.8 -0.2 2
06 19.06 СЗ 4 10 км {ливн. осадки} 10/10 300 м
[St]
+0.7 0.0 95 -5 -5 999.1 998.7
09 19.06 СЗ 6 10 км {ливн. осадки} 10/10 300 м
[St]
+0.8 +0.3 96 -6 -6 1000.5 1000.1
12 19.06 СЗ 4 4000 м слаб. ливневой снег 10/10 300 м
[Cb cap]
+0.6 +0.4 99 -5 -5 1001.7 1001.3
15 19.06 ЮЗ 2 10 км {ливн. осадки} 10/10 300 м
[St]
+1.3 +0.6 95 -2 -2 1001.6 1001.2 +1.5 1
18 19.06 ЮЗ 3 4000 м слаб. ливневой снег 10/10 300 м
[Cb cap]
+0.3 +0.3 100 -5 -5 1000.5 1000.1
21 19.06 З 5 4000 м слаб. ливневой снег 10/10 300 м
[Cb cap]
+0.3 +0.3 100 -6 -6 1000.0 999.6
00 20.06 ЮЗ 7 10 км {ливн. осадки} 10/10 300 м
[St]
+0.5 -0.0 96 -7 -7 1000.1 999.7
03 20.06 З 7
{13}
20 км 10/8 600 м
[Sc Ac trans]
+0.9 -0.8 88 -6 -6 1000.0 999.6 +0.1 3
06 20.06 З 8-12
{13}
20 км 10/10 600 м
[Sc]
+1.2 -0.2 90 -6 -6 1000.2 999.8
09 20.06 З 7-11
{14}
20 км {ливн. осадки} 9/9 600 м
[Sc]
+2.6 -1.0 77 -4 -3 1001.0 1000.6
12 20.06 З 8-11
{12}
20 км {ливн. осадки} 9/9 300 м
[Cu hum]
+2.2 +0.2 87 -5 -5 1002.2 1001.8
15 20.06 З 8-12
{12}
20 км 8/6 300 м
[Cu hum Ac trans]
+2.5 -0.7 79 -4 -4 1002.9 1002.5 +2.9 3
18 20.06 ЮЗ 7-11
{13}
20 км 6/5 600 м
[Sc Ac trans]
+1.5 -0.9 84 -5 -5 1003.4 1003.0
21 20.06 Ю 8-12
{12}
10 км 4/4 600 м
[Sc]
+0.4 -0.8 92 -7 -7 1003.2 1002.8
03 21.06 ЮЗ 7-10
{11}
20 км 10/10 600 м
[Sc]
+3.2 +1.7 90 -3 -3 1003.1 1002.7 +0.3
06 21.06 ЮЗ 8-13
{13}
20 км 8/8 300 м
[Cu hum]
+4.6 +1.1 78 -1 -1 1003.4 1003.0
09 21.06 ЮЗ 7-10
{13}
20 км 9/8 300 м
[Cu hum Ci fib]
+4.6 +0.9 77 -1 -0 1003.8 1003.4
12 21.06 ЮЗ 10-13
{15}
4000 м слаб. ливневой дождь 10/10 300 м
[Cb cap]
+2.7 +1.0 89 -5 -5 1004.7 1004.3
15 21.06 ЮЗ 7
{14}
10 км в посл. час ливневой дождь 10/8 600 м
[Sc Ac trans]
+2.4 +1.2 92 -4 -4 1004.4 1004.0 +5.2 0.4
18 21.06 ЮЗ 5
{10}
10 км {ливн. осадки} 9/8 300 м
[St Ac trans]
+1.7 +0.8 94 -4 -4 1004.4 1004.0
21 21.06 З 6 10 км 9/9 300 м
[St]
+1.3 +0.6 95 -5 -5 1004.1 1003.7
00 22.06 штиль 0 50 км ?/? +1.3 +0.7 96 0 0 1004.2 1003.8
03 22.06 З 5 10 км 10/10 600 м
[Sc]
+1.9 +1.1 94 -4 -4 1004.2 1003.8 +1.2
06 22.06 штиль 0-11
{11}
50 км {ливн. осадки} ?/? +2.2 +1.0 92 +1 +1 1004.9 1004.5
09 22.06 З 6
{11}
10 км 10/8 600 м
[Sc Ac trans]
+2.3 +1.1 92 -4 -4 1005.8 1005.4
12 22.06 З 5 20 км 9/9 600 м
[Sc]
+3.1 +0.3 82 -2 -2 1006.7 1006.3
15 22.06 З 4
{13}
4000 м слаб. ливневой дождь 9/9 300 м
[Cb cap]
+2.1 +1.2 94 -3 -3 1006.8 1006.4 +3.1 0.0
21 22.06 ЮЗ 4 20 км 9/9 600 м
[Sc]
+1.0 -0.4 90 -4 -4 1006.2 1085.8
06 23.06 З 4 10 км 10/10 600 м
[Sc]
+3.0 +0.7 85 -2 -2 1004.2 1003.8
09 23.06 ЮЗ 5 20 км 9/9 600 м
[Sc]
+4.3 +0.7 77 -0 0 1003.4 1003.0
12 23.06 З 3 20 км 6/4 600 м
[Sc Ac trans]
+5.6 +1.6 75 +2 +5 1003.1 1002.7
15 23.06 З 3 20 км 4/1 600 м
[Sc Ac trans Ci fib]
+4.8 +1.8 81 +1 +2 1002.6 1002.2 +5.8
18 23.06 В 2 20 км 8/8 600 м
[Sc Ac trans]
+3.4 +2.0 91 0 0 1001.7 1001.3
21 23.06 СВ 1 10 км 9/9 300 м
[St]
+2.4 +1.9 96 +1 +1 1000.8 1000.4
00 24.06 С 1 10 км 9/9 300 м
[St]
+1.9 +1.4 96 0 0 1000.4 1000.0
03 24.06 С 2 10 км 10/10 300 м
[St]
+2.2 +1.6 96 -1 -1 1000.4 1000.0 +1.8
06 24.06 СЗ 5 10 км 10/6 300 м
[St Ac trans]
+2.1 +2.0 99 -4 -3 1001.5 1001.1
09 24.06 СЗ 8
{10}
10 км 8/6 300 м
[St Ci fib]
+0.9 +0.4 96 -7 -6 1003.5 1003.1
12 24.06 СЗ 6
{10}
10 км 8/6 300 м
[St Ci fib]
+0.2 -0.7 94 -7 -6 1006.1 1005.7
15 24.06 ЮЗ 1 10 км 10/10 600 м
[Sc]
+2.3 +0.2 86 +1 +1 1006.9 1006.5 +2.4
18 24.06 З 4 10 км 9/4 600 м
[Sc Ac trans]
+2.3 +0.9 90 -3 -3 1007.6 1007.2
21 24.06 З 7 10 км 9/3 600 м
[Sc Ac trans]
+1.9 +0.7 92 -5 -5 1008.1 1007.7
00 25.06 ЮЗ 5 20 км 10/4 600 м
[Sc Ac trans]
+1.4 -0.1 90 -4 -4 1008.5 1008.1
03 25.06 ЮЗ 4 10 км {ливн. осадки} 10/10 600 м
[Sc]
+1.9 +1.3 96 -3 -3 1008.9 1008.5 +0.9 0.0
06 25.06 З 4 20 км {ливн. осадки} 10/10 600 м
[Sc]
+3.9 +0.7 80 -1 -1 1008.9 1008.5

 

Местоположение метеостанции Усть-Кара (Ненецкий АО, Россия): широта 69.25 долгота 64.93 высота над уровнем моря 3 м.

В архиве по умолчанию представлена погода в Усть-Каре за последнюю неделю. Архивные данные за месяц целиком и за предыдущие месяцы, начиная с января 2011 года, Вы можете получить, выбрав интересующий диапазон дат из раскрывающегося списка и нажав кнопку "Ввод!".


*Определитесь, кто Вы:
робот инопланетянин человек

Внимание! Время в таблицах - всемирное. Для получения местного времени необходимо прибавить поправку, которая равна 3 ч.

Смотрите также архив погоды в соседних городах и на ближайших метеорологических станциях:

Погода в Марресале (Ямало-Ненецкий АО, Россия) (89 км)
Погода в Амдерме (Ненецкий АО, Россия) (139 км)
Погода на Мысе Белый Нос (Ненецкий АО, Россия) (189 км)
Погода в Воркуте (Коми, Россия) (201 км)
Погода в Елецкой (Коми, Россия) (247 км)
Погода в Имени Федорова (Ненецкий АО, Россия) (261 км)
Погода в Харпе (Ямало-Ненецкий АО, Россия) (275 км)
Погода в Варандее (Ненецкий АО, Россия) (279 км)
Погода в Белоярске (Ямало-Ненецкий АО, Россия) (296 км)
Погода в Сеяхе (Ямало-Ненецкий АО, Россия) (310 км)

Пояснения к столбцам:

Ветер - указаны скорость ветра в м/с - средняя за 10 мин, порывы в срок и между сроками (в фигурных скобках) и направление, откуда дует ветер: С - северный, СВ - северо-восточный, В - восточный, ЮВ - юго-восточный, Ю - южный, ЮЗ - юго-западный, З - западный, СЗ - северо-западный.
Видимость - горизонтальная дальность видимости в метрах или километрах. При видимости от 1 до 10 км при отсутствии осадков обычно наблюдается дымка, при ухудшении видимости до 1 км и менее - туман. В сухую погоду видимость может ухудшаться дымом, пылью или мглою.
Явления - указаны атмосферные явления, наблюдавшиеся в срок или в последний час перед сроком; фигурными скобками обозначены явления, наблюдавшиеся между сроками (за 1-3 часа до срока); квадратными скобками обозначены град или гололедные отложения с указанием их диаметра в мм.
Облачность - указаны через наклонную черту общая и нижняя облачность в баллах и высота нижней границы облаков в метрах; квадратными скобками обозначены формы облаков: Ci - перистые, Cs - перисто-слоистые, Cc - перисто-кучевые, Ac - высококучевые, As - высокослоистые, Sc - слоисто-кучевые, Ns - слоисто-дождевые, Cu - кучевые, Cb - кучево-дождевые. Подробнее классификацию облаков см. в Атласе облаков (PDF).
T - Температура воздуха - температура, измеренная на высоте 2 м над землей.
Td - Температура точки росы - температура, при понижении до которой содержащийся в воздухе водяной пар достигнет насыщения.
f - Относительная влажность воздуха - влажноcть воздуха, измеренная на высоте 2 м над землей.
Te - Эффективная температура - температура, которую ощущает одетый по сезону человек в тени. Характеристика душности погоды. При расчете учитывается влияние влажности воздуха и скорости ветра на теплоощущения человека.
Tes - Эффективная температура на солнце - температура, которую ощущает человек, с поправкой на солнечный нагрев. Характеристика знойности погоды. Зависит от высоты солнца над горизонтом, облачности и скорости ветра. Ночью, в пасмурную погоду, а также при ветре 12 м/с и более поправка равна нулю.
P - Атмосферное давление - приведенное к уровню моря атмосферное давление.
Po - Атмосферное давление - измеренное на уровне метеостанции атмосферное давление.
Tmin - Минимальная температура - минимум температуры воздуха на высоте 2 м над землей.
Tmax - Максимальная температура - максимум температуры воздуха на высоте 2 м над землей.
R - Количество осадков - Количество выпавших осадков за период времени, мм. При наведении курсора мыши на число - период времени, за который выпало указанное количество осадков.
R24 - Количество осадков - Количество выпавших осадков за 24 часа, мм.
S - Снежный покров - Высота снежного покрова, см. При наведении курсора мыши на число - состояние снежного покрова и степень покрытия местности в баллах.